[Date Prev][Date Next][Thread Prev][Thread Next] - [Date Index][Thread Index][Author Index]

2 Line ISS Keps 4-30



ISS
1 25544U 98067A   05120.39988426  .00007152  00000-0  58968-4 0  3615
2 25544 051.6438 145.5855 0007951 066.3644 132.4966 15.71616110368167
----
Via the sarex mailing list at AMSAT.ORG courtesy of AMSAT-NA.
To unsubscribe, send "unsubscribe sarex" to Majordomo@amsat.org



AMSAT Top AMSAT Home